Showing default

ASIASAT 9, 42942

Orbit data source: Space-Track

ASIASAT 9, 42942 is a payload satellite owned by Asiasat (HK) in GEO that was launched on Thu, 28 Sep 2017 UTC via a PROTON-M/BRIZ-M launch vehicle from the Tyuratam Missile And Space Complex (TTMTR). Payload-class satellites include a variety of spacecraft equipped with specific instruments for various scientific and technological missions. These include communications satellites like Starlink; space stations such as the ISS; scientific satellites like the Hubble; Earth observation satellites from companies like Planet Labs, Umbra, and HawkEye 360; GPS; miniature CubeSats for education and research; and military/defense satellites.

Not visible in the next 10 days
Identifier
42942, 2017-057A
Orbit
GEO
Country
Flag of ACAC
Related business
Manufacturer
SS/Loral (MDA)
Mission
Operational Commercial Communications
Bus & Motor
LS-1300, R-4D
Mass
~6,141 kg wet, ~3,500 kg dry
Launch date (UTC)
2017-09-28 (9 years ago)
Launch vehicle
PROTON-M/BRIZ-M
Launch site
Tyuratam Missile And Space Complex (TTMTR)
Object type
Payload
Rocket body
Debris
Shape & HBR
Box + 2 Pan, 13.5 m
Radar Cross Section
44.796 m², Large (>1 m²)

Expand to show TLE details & history
Last TLE update: 1 day ago

TLE from 1 day ago
0 ASIASAT 9
1 42942U 17057A   26172.23586286  .00000000  00000-0  00000+0 0  9998
2 42942   0.0418  51.2413 0002542  27.7813  37.4783  1.00262831 31901
Epoch: 2026-06-21T05:39Z
TLE epoch observation values (Epoch: 2026-06-21T05:39:38.551Z)
Latitude
0.05219°
Longitude
122.18025°
Altitude
35,780.045 km
Speed
3.075 km/s
True Right ascension
07h 46m 07s
True Declination
0° 03' 08"
Sunlit
Object was in daylight at epoch
Visualization orbit readout
Latitude
Unknown
Longitude
Unknown
Altitude
Unknown
Speed
Unknown
Apparent Right ascension
Unknown
Apparent Declination
Unknown
Sunlit
N/A
Visualization observer readout
Local Sidereal Time
00:27:05
Azimuth
Unknown
Elevation
Unknown
Doppler factor
Unknown
Orbital elements
Apogee altitude
35,800.895 km
Perigee altitude
35,779.456 km
Semi-major axis
42,168.313 km
Eccentricity
0.00025
Inclination
0.0418°
RAAN
51.2413°
Arg. of periapsis
27.7813°
True anomaly
37.49603°
Mean anomaly
37.4783°
Eccentric anomaly
37.48716°
Mean motion
0.25065 °/min
Orbital period
1,436.28 mins
BSTAR
0
Loading maneuver chart data...
Computing Atmospheric mass density...
Loading historical data...
Loading historical data...
Loading historical data...
Loading historical data...
Loading historical data...
Loading historical data...
Loading historical data...
Other satellites on launch #57 in the year 2017 (2017-09-28 UTC)

Documentation

Showing up to 5 results
|